Location: Villingen
(48.0639°N, 8.4609°E)
Time: 20:25:35
(UTC+01:00)

ISS - Pass Details

Date: 18 November 2017
Orbit: 401 x 407 km, 51.6° (Epoch: 18 November)

Event Time Altitude Azimuth Distance (km) Brightness Sun altitude
Exits shadow 05:31:23 13° 182° (S) 1,259 -1.3 -20.8°
Drops below altitude 10° 05:32:04 10° 173° (S) 1,447 -0.9 -20.7°
Sets 05:34:30 0° 155° (SSE) 2,302 0.4 -20.3°
